Location: Ablainzevelle
(50.1527°N, 2.7332°E)
Time: 07:24:09
(UTC+00:00)

Daily predictions for brighter satellites

Satellite Brightness Start Highest point End
(mag) Time Altitude Azimuth Time Altitude Azimuth Time Altitude Azimuth
Cosmos 1606 Rocket 4.1 16:51:32 10° N 16:55:38 37° ENE 16:59:44 10° SE
KORONAS-FOTON 4.0 16:51:53 10° SSW 16:55:47 80° W 16:59:44 10° N
CZ-2D R/B 4.5 16:54:42 10° ESE 16:57:39 21° ENE 17:00:35 10° NNE
H-2A R/B 2.6 16:53:33 10° NNE 16:57:49 41° E 17:01:58 10° S
USA 234 3.7 16:54:04 10° ENE 17:00:19 49° N 17:06:35 10° WNW
YAOGAN 1 4.1 16:57:54 10° E 17:00:31 16° ENE 17:03:08 10° NNE
ATLAS 5 CENTAUR R/B 1.8 16:57:12 10° SSW 17:01:05 50° SE 17:05:28 10° NE
CZ-4C R/B 2.7 16:58:38 10° NNE 17:01:46 64° ESE 17:04:54 10° S
Cosmos 2082 4.4 16:56:12 10° SW 17:01:47 53° NW 17:07:23 10° NNE
FengYun 1-2 T 4.3 16:56:58 10° SSE 17:02:27 63° ENE 17:08:01 10° N
Tsikada Rocket 4.1 16:57:20 10° S 17:03:40 87° E 17:09:57 10° N
NOAA 12 4.1 16:59:07 10° SSE 17:04:21 85° ENE 17:09:38 10° NNW
SL-14 R/B 3.5 17:01:43 10° S 17:05:27 50° E 17:09:16 10° NNE
RESURS DK-1 2.4 17:02:30 10° SSW 17:06:39 83° ESE 17:10:49 10° NNE
ATLAS 3B R/B 3.5 17:00:16 10° NW 17:07:05 60° SW 17:14:09 10° SSE
Cosmos 2228 3.1 17:03:30 10° N 17:07:42 53° ENE 17:11:53 10° SSE
Cosmos 1400 Rocket 4.1 17:04:01 10° NNW 17:07:59 47° W 17:11:53 10° S
Cosmos 1538 Rocket 4.3 17:08:58 10° NNW 17:13:57 44° ENE 17:18:53 10° SE
CZ-4C R/B 2.6 17:09:15 10° WSW 17:14:21 61° NW 17:20:35 10° NE
Meteor 2-5 Rocket 3.7 17:08:53 10° S 17:14:22 63° E 17:19:51 10° NNE
CZ-3B R/B 1.7 17:13:41 10° NW 17:15:41 40° NNE 17:19:37 10° E
SJ 16-02 3.1 17:15:09 10° SE 17:17:21 14° E 17:18:57 12° ENE
CORIOLIS 4.3 17:15:42 10° SSE 17:21:07 84° WSW 17:26:33 10° NNW
Cosmos 2263 Rocket 2.2 17:16:21 10° SSW 17:22:01 80° ESE 17:27:43 10° NNE
Cosmos 968 Rocket 4.3 17:19:47 10° SW 17:24:44 51° WNW 17:29:45 10° NNE
Cosmos 1455 3.4 17:22:05 10° NNE 17:25:02 21° ENE 17:27:59 10° ESE
NOAA 11 4.3 17:21:04 10° SSE 17:26:35 85° WSW 17:32:08 10° NNW
Cosmos 1354 Rocket 4.0 17:21:19 10° SSW 17:26:39 86° ESE 17:32:02 10° NNE
Cosmos 2058 Rocket 3.5 17:22:50 10° N 17:27:05 40° ENE 17:31:20 10° SE
USA-17 4.5 17:24:44 10° SW 17:28:17 71° NW 17:30:59 13° NE
Cosmos 1300 2.8 17:25:38 10° NNW 17:29:27 82° W 17:33:16 10° S
Landsat 5 3.9 17:30:24 10° N 17:34:19 58° WNW 17:38:07 10° SSW
GENESIS II 4.2 17:32:02 10° SW 17:36:03 88° SE 17:39:28 14° NE
ADEOS Rocket 4.5 17:32:34 10° N 17:38:01 33° WNW 17:43:04 10° WSW
ARGOS 4.0 17:34:18 10° ESE 17:38:48 28° ENE 17:43:18 10° N
Lacrosse 5 1.8 17:35:03 10° WNW 17:40:07 71° NNE 17:45:00 11° ESE
NOSS 3-1 (C) 4.3 17:33:31 10° NW 17:40:10 44° NNE 17:47:11 13° E
CREW DRAGON DEMO-1 DEB 2.6 17:37:20 10° WNW 17:40:14 72° N 17:41:52 23° E
Okean 1-7 Rocket 4.2 17:37:29 10° SSE 17:41:36 35° E 17:45:47 10° NNE
Cosmos 1943 4.3 17:36:31 10° NW 17:41:59 49° WSW 17:47:23 10° S
Cosmos 1726 Rocket 3.5 17:38:20 10° N 17:42:43 85° ENE 17:47:07 10° S
ERS-2 3.1 17:42:03 18° NE 17:43:48 27° E 17:46:56 10° SSE
ISS -1.7 17:41:58 10° S 17:44:03 15° SE 17:45:00 14° ESE
CZ-2C R/B 4.2 17:45:49 16° E 17:45:49 16° E 17:48:30 10° ESE
Cosmos 1939 Rocket 2.9 17:41:32 10° SSE 17:45:40 87° W 17:49:47 10° NNW
Meteor 1-24 Rocket 3.6 17:43:07 10° S 17:48:29 89° W 17:53:49 10° NNE
COSMOS 2455 3.1 17:43:35 10° S 17:49:22 50° ESE 17:54:02 16° NE
Cosmos 1833 Rocket 3.9 17:49:04 10° N 17:53:18 21° NE 17:54:41 19° ENE
Cosmos 2082 Rocket 3.8 17:51:25 10° N 17:54:55 16° NNE 17:55:55 15° NE
Cosmos 1315 Rocket 4.2 17:51:29 10° NNW 17:55:14 41° W 17:59:00 10° SSW
IRS-1C Rocket 4.0 17:51:19 10° SSE 17:56:32 74° ENE 18:01:48 10° NNW
USA 229 DEB 4.3 17:50:24 10° NW 17:57:07 42° NNE 18:01:49 21° E
USA 229 4.3 17:50:30 10° NW 17:57:12 42° NNE 18:01:51 21° E
CZ-4 R/B 1.5 17:53:59 10° SSE 17:57:59 53° ENE 18:01:55 10° N
Feng Yun 1-1 Rocket 4.3 17:53:50 10° SSE 17:59:16 83° WSW 18:04:51 10° NNW
COSMO-SKYMED 1 2.5 17:57:03 10° NNE 18:01:24 71° ESE 18:05:44 10° S
Cosmos 2279 Rocket 4.4 17:56:14 10° NNW 18:02:28 68° W 18:08:39 10° S
SL-08 RB Rocket 4.5 18:05:15 28° ENE 18:05:32 28° ENE 18:09:22 10° N
Cosmos 2227 Rocket 4.4 18:06:46 10° WNW 18:10:19 17° NNW 18:13:53 10° N
CZ-4B R/B 1.6 18:08:14 10° N 18:11:35 72° WNW 18:14:53 10° SSW
NOSS 3-1 (A) 4.3 18:06:02 10° NW 18:12:43 44° NNE 18:16:58 25° E
Okean-O 2.5 18:09:42 10° SSE 18:14:06 71° ENE 18:18:33 10° N
CZ-2C R/B 3.3 18:10:22 10° S 18:15:40 79° WSW 18:21:19 10° NNW
Cosmos 923 Rocket 4.0 18:10:24 10° NNW 18:15:44 64° ENE 18:21:01 10° SE
Cosmos 1844 Rocket 2.8 18:11:00 10° S 18:16:27 51° ESE 18:19:25 26° NE
Okean O Rocket 3.9 18:13:30 10° SSW 18:17:17 27° W 18:21:05 10° NW
H-2A R/B 1.9 18:13:08 10° SSE 18:18:05 70° ENE 18:23:12 10° N
Cosmos 1689 Rocket 3.9 18:20:00 20° SSE 18:20:00 20° SSE 18:21:05 10° S
Meteor 1-21 Rocket 4.3 18:14:02 10° S 18:19:21 52° E 18:24:45 10° NNE
ATLAS 2AS CENTAUR R/B 3.8 18:12:05 10° W 18:19:37 44° NNW 18:25:31 16° NE
Aureole 2 Rocket 2.2 18:16:48 10° SSW 18:19:28 57° SE 18:19:28 57° SE
Cosmos 158 Rocket 3.9 18:15:48 10° NNW 18:21:09 76° ENE 18:26:32 10° SSE
Cosmos 1680 Rocket 3.5 18:17:55 10° NNW 18:23:07 57° ENE 18:26:36 20° SE
SAR-Lupe-4 3.4 18:31:27 69° ENE 18:31:43 74° ESE 18:35:17 10° S
Meteor 2-10 Rocket 4.3 18:27:03 10° NNW 18:32:29 55° W 18:37:39 10° S
Cosmos 1602 Rocket 4.3 18:28:43 10° SSE 18:31:34 34° SE 18:31:34 34° SE
Cosmos 1818 3.6 18:27:53 10° SSW 18:33:12 60° ESE 18:34:52 41° ENE
H-2A R/B 4.2 18:29:51 10° N 18:33:36 27° WNW 18:37:17 10° WSW
YAOGAN 1 2.7 18:31:46 10° S 18:36:05 75° WSW 18:40:26 10° NNW
CSL-04 Rocket 3.5 18:34:34 10° SSE 18:39:57 75° ENE 18:45:27 10° NNW
Helios 1A Rocket 3.0 18:36:50 10° SSE 18:40:58 80° WSW 18:45:09 10° NNW
SAR-Lupe-1 4.0 18:42:35 84° WNW 18:42:36 84° WNW 18:46:11 10° SSW
USA 234 3.4 18:40:19 38° E 18:42:50 60° NNE 18:49:16 10° WNW
MOS 1 Rocket 3.6 18:41:20 10° N 18:45:36 57° WNW 18:49:47 10° SSW
Iridium 4 Rocket 3.5 18:39:57 10° N 18:45:44 69° E 18:51:03 10° SSE
ATLAS 5 CENTAUR R/B 2.9 18:42:02 10° W 18:45:53 33° NNW 18:47:37 25° N
Cosmos 1092 Rocket 3.8 18:40:16 10° S 18:46:25 70° E 18:52:33 10° NNE
Cosmos 1812 Rocket 3.4 18:44:22 10° N 18:48:48 76° E 18:48:54 76° E
SL-24 R/B - RUBIN 2 4.5 18:45:31 10° SSW 18:52:13 81° SE 18:54:50 40° NE
Cosmos 2344 4.2 18:43:35 10° NW 18:52:28 72° NE 18:59:35 28° ESE
SJ 16-02 1.4 18:50:53 10° SSW 18:55:17 77° WNW 18:55:59 61° N
Aureole 3 4.4 18:53:04 10° NNW 18:56:28 37° W 18:59:24 10° SSW
Cosmos 2112 Rocket 3.9 18:55:20 10° NNW 19:00:38 87° WSW 19:02:18 45° SSE
Cosmos 1455 3.7 18:57:14 10° NNW 19:00:45 36° W 19:04:16 10° SSW
Nadezhda 4 Rocket 4.5 18:57:44 10° SSW 19:03:54 59° WNW 19:10:03 10° N
CZ-4C R/B 3.8 18:59:16 10° WNW 19:04:10 28° NNW 19:06:30 23° NNE
Cosmos 2263 Rocket 4.1 19:01:59 10° W 19:06:37 25° NW 19:10:38 13° N
X-37B 3.5 19:04:53 10° SW 19:05:31 14° SW 19:05:31 14° SW
COSMOS 2406 3.3 19:09:40 10° NNW 19:14:49 61° NNE 19:14:49 61° NNE
ERS-2 4.0 19:16:37 26° NW 19:17:19 27° WNW 19:20:26 10° SW
ARGOS 3.8 19:13:33 10° S 19:18:47 54° W 19:24:04 10° NNW
ISS -1.1 19:17:01 10° WSW 19:17:58 17° SW 19:17:58 17° SW
Lacrosse 5 3.3 19:18:20 10° WNW 19:22:51 33° SW 19:24:15 28° SSW
CZ-2C R/B 3.0 19:27:19 59° SSW 19:27:19 59° SSW 19:31:48 10° SSW
NOSS 3-1 (C) 4.1 19:24:18 10° NW 19:31:41 76° SW 19:34:40 44° SSE
CZ-4 R/B 4.2 19:30:32 10° SW 19:33:18 17° W 19:36:03 10° NW
COSMOS 2455 3.8 19:29:45 10° WSW 19:35:28 42° NW 19:37:13 34° N
Cosmos 1553 Rocket 3.9 19:29:35 10° N 19:36:03 87° W 19:36:14 84° SSW
Cosmos 1833 Rocket 3.3 19:32:28 10° NNW 19:36:24 47° NNW 19:36:24 47° NNW
Cosmos 1844 4.2 19:32:54 10° SW 19:38:29 56° NW 19:39:07 53° NNW
Cosmos 2082 Rocket 3.5 19:34:46 10° NNW 19:37:48 30° N 19:37:48 30° N
Cosmos 2026 Rocket 4.3 19:34:52 10° SSW 19:40:55 64° WNW 19:47:07 10° N
USA 281 4.0 19:43:33 38° N 19:43:33 38° N 19:47:49 10° NNW
USA 229 DEB 3.9 19:41:25 10° NW 19:48:42 77° SW 19:49:18 73° S
USA 229 3.8 19:41:31 10° NW 19:48:47 78° SW 19:49:21 74° S
USA 267 3.9 19:51:34 44° SSW 19:51:34 44° SSW 19:56:06 10° SW
Cosmos 1844 Rocket 4.0 19:55:24 10° WSW 20:00:34 35° NW 20:01:07 34° NW
NOSS 3-1 (A) 4.0 19:56:52 10° NW 20:04:16 75° SW 20:04:27 75° SW
ATLAS 2AS CENTAUR R/B 4.2 20:05:52 10° WNW 20:12:34 29° N 20:12:56 29° N
USA 234 4.0 20:27:41 48° WNW 20:27:41 48° WNW 20:32:22 10° WNW
